Погода в Ачинске

Погода в Ачинске : погода сейчас, прогноз погоды и архив. Всё, что Вы хотите узнать о погоде в Ачинске!

Поиск расширенной информации на нашем сайте:

Другие новости

Новости СМИ2

Главная страница сайта

Новости сайта

03.07.2017

Напоминаем, что на нашем специализированном сайте Метеоцентр.Азия вы можете получить высокодетализированные автоматические прогнозы погоды по пунктам России, СНГ и мира в авиационном формате (включающие направление и скорость ветра, видимость, явления погоды, количество и форму облачности, нижнюю и верхнюю границу облачности).


Погода в Ачинске - сегодня

Время (UTC), дата Ветер
(°,м/с) 
Видим.   Явления Облачность Т
(°С)
Тd
(°С)
f(%) Тe
(°С)
Pmin
(гПа)
dP
(гПа)
Po
(мм)
O2
(г/м3)
Тmin Tmax R s Состояние
почвы
15 17.10.17 тихо ()   20000 м  {снег}  9/9 1000 м 
[Sc]
-0.6 -1.4 94 -1  1028.6  -0.2  747  302           
18 17.10.17 тихо ()   20000 м  слаб. снег  10/6 600 м средняя 
[Sc|As op]
-1 -1.2 99 -1  1027.4  -1.2  746  302           
21 17.10.17 тихо ()   20000 м  слаб. снег  10/8 600 м средняя 
[Sc|As op]
-1.1 -1.3 99 -1  1026.1  -1.3  745  302           
00 18.10.17 060 (СВ) 20000 м  {снег}  9/9 1000 м 
[Sc]
-1 -1.2 99 1024.9  -1.1  744  301  -1.2    0.3  <0.5  равномерный
мокрый или
старый снег
100% 
03 18.10.17 070 (В) 10 км  дым  9/9 600 м 
[Sc]
+0.4 +0.2 99 +1  1023.9  -0.8  744  299           
06 18.10.17 090 (В) 10 км  дым  9/9 600 м 
[Sc]
+1.9 +0.8 92 +3  1021.9  -1.8  742  297           
09 18.10.17 070 (В) 10 км  дым  10/10 600 м кучево-дожд. 
[Cb cap]
+2.6 +0.3 85 +2  1020.2  -1.6  741  296           
12 18.10.17 070 (В) 10 км  дым  9/9 600 м 
[Sc]
+2 +0.5 90 +1  1019.7  -0.5  741  296    +3.3       
15 18.10.17 090 (В) 20000 м    9/9 600 м 
[Sc]
+1.8 +0.8 93 +3  1018.9  -0.8  740  296           
18 18.10.17 080 (В) 20000 м    9/9 600 м 
[Sc]
+1.5 +0.9 96 +2  1018  -0.9  740  296           
21 18.10.17 100 (В) 20000 м    9/9 600 м 
[Sc]
+1.3 +1 98 +2  1017.4  -0.6  739  296           
00 19.10.17 110 (В) 20000 м    9/9 600 м 
[Sc]
+1.1 +0.9 99 +2  1017.8  0.4  739  297  +1         
03 19.10.17 120 (ЮВ) 10 км  дым  10/10 600 м 
[Ns]
+1.4 +1.2 99 +1  1018.3  0.5  740  296  +0.9         
06 19.10.17 090 (В) 10 км  дым  10/10 600 м 
[Ns]
+3.1 +1.8 91 +4  1018  -0.1  740  294           
09 19.10.17 140 (ЮВ) 20000 м    10/10 600 м 
[Ns]
+4.5 +2.4 86 +5  1018.4  0.5  740  293           
12 19.10.17 090 (В) 20000 м    9/9 600 м 
[Sc]
+3.3 +2 91 +4  1019.3  0.7  741  295    +5       
15 19.10.17 180 (Ю) 10 км  дым  9/9 600 м 
[Sc]
+3.2 +2.8 97 +3  1019.9  0.6  741  295           
18 19.10.17 170 (Ю) 10 км  слаб. дождь  10/10 600 м 
[Ns]
+3.2 +3.1 99 +3  1019.7  -0.1  741  295           
21 19.10.17 160 (Ю) 20000 м  {дождь}  10/10 600 м 
[Ns]
+3.6 +3.4 99 +3  1018.8  -0.9  740  294           
00 20.10.17 120 (ЮВ) 20000 м  {дождь}  9/8 600 м верхняя 
[Sc|Ci fib]
+3.6 +3.4 99 +3  1017.2  -1.5  739  293  +2.4    0.6     
03 20.10.17 120 (ЮВ) 10 км  дым  10/0 средняя 
[Ac As]
+4.2 +3.5 95 +4  1016.4  -0.7  739  293           
06 20.10.17 180 (Ю) 20000 м    10/8 600 м кучево-дожд., средняя 
[Cb cap|As trans]
+6 +4.6 91 +5  1015.4  -0.8  738  290           
09 20.10.17 170 (Ю) 20000 м    8/6 600 м средняя 
[Sc|Ac trans]
+7.6 +4.1 78 +8  1014.5  -0.7  738  288           
12 20.10.17 170 (Ю) 20000 м    3/3 600 м 
[Sc]
+6 +4 87 +5  1014.8  0.1  738  290    +8.6       
15 20.10.17 180 (Ю) 20000 м    9/9 600 м 
[Sc]
+5.6 +2.3 79 +5  1014.2  -0.6  737  291           
Время (UTC), дата Ветер
(°,м/с) 
Видим.   Явления Облачность Т
(°С)
Тd
(°С)
f(%) Тe
(°С)
Pmin
(гПа)
dP
(гПа)
Po
(мм)
O2
(г/м3)
Тmin Tmax R s Состояние
почвы

Для получения пояснительной информации подведите курсор к названию столбца.

ПОГОДА в Ачинске - архив

Всё, что Вы хотите узнать о погоде в Ачинске - удобно и подробно!

Выберите нужную дату (начиная с 1 января 2015* года) и нажмите кнопку "Найти".
Будут отображены архивные сводки погоды по пункту Ачинск, начиная с указанной даты.


Отображать данные в формате CSV (для использования в таблицах Excel)


Внимание! Наш архив погоды предназначен исключительно для личного некоммерческого использования в познавательных целях. Если Вам необходимы официальные справки о состоянии погоды (для производственных, юридических, коммерческих и т.п. целей), обращайтесь в органы Росгидромета.

*Примечание: данная дата относится к архиву по метеостанциям СССР (Россия, СНГ, Балтия).
Архив по метеостанциям Зарубежной Европы и Азии (кроме Китая) хранится 10 дней, по другим регионам земного шара (Китай, Африка, Америка, Австралия, Океания) - 1 день.

Ачинск - район местоположения метеостанции


Название, широта, долгота, высота метеостанции:
Ачинск 56.3°ш. 90.5°д. 272 м над ур. моря [Российская Федерация]

Дополнительная информация

В oтличие oт бoльшинства пoгoдных сайтoв мы публикуем пoдрoбную метеoинфoрмацию в детальнoм прoфессиoнальнoм фoрмате.

Характеристики температуры и влажнoсти вoздуха измеряются на высoте 2 м в тени вдали oт зданий и деревьев.
Скoрoсть ветра измеряется на высoте 10 м (на урoвне рoста челoвека скoрoсть ветра ниже в 1.5-2 раза). Если метеoстанция нахoдится в гoрoде или в лесу, тo скoрoсть ветра занижена на 2-4 м/с пo сравнению с oткрытым местoм. Скoрoсть ветра над акватoриями крупных рек и oзёр, а также на вершинах хoлмoв на 2-5 м/с выше, чем в oбычных услoвиях.
Атмoсфернoе давление в разных тoчках местнoсти мoжет значительнo oтличаться oт давления на метеoстанции, в зависимoсти oт услoвий рельефа (при пoдъёме на 10 м давление пoнижается примернo на 1 мм рт.ст.).